IRIDIUM 81 [-]

Last updated on July 17, 2018, 12:20 a.m. UTC

1 25468U 98051B   18197.92636617  .21163461 -19968-5  17361-3 0  9998
2 25468  86.3733 213.5633 0056394 240.5267 119.2981 16.46064789 40032

Satellite is not in orbit.